F1GZH-2 Weather Reports


time (UTC)temp
F
wind
direction
speed
knots
gust
knots
rain 1hr
in
rain 24hr
in
rain mn
in
humidity
%
barometer
mb
20260505163359 60 225 1.7 7.0 0.00 0.00 0.00 73 1012.1
20260505161357 61 225 0.9 5.2 0.00 0.00 0.00 71 1012.2
20260505153355 62 225 2.6 2.6 0.00 0.00 0.00 59 1012.4
20260505151354 59 180 1.7 1.7 0.00 0.00 0.00 54 1012.3
20260505123345 67 135 0.0 0.9 0.00 0.00 0.00 76 1012.2
20260505121344 65 225 0.0 1.7 0.00 0.00 0.00 75 1012.6
20260505115343 62 157 0.0 0.9 0.00 0.00 0.00 67 1012.7
20260505113342 61 180 0.0 1.7 0.00 0.00 0.00 63 1012.9
20260505111341 60 202 1.7 2.6 0.00 0.00 0.00 60 1013.2
20260505101337 60 90 0.0 0.0 0.00 0.00 0.00 31 1013.5
20260505095336 58 202 0.0 0.0 0.00 0.00 0.00 25 1013.7
20260505093335 57 157 0.0 0.0 0.00 0.00 0.00 24 1013.8
20260505091334 57 157 0.0 0.0 0.00 0.00 0.00 24 1013.7
20260505085333 57 67 0.0 0.0 0.00 0.00 0.00 24 1013.7
20260505083332 56 112 0.0 0.0 0.00 0.00 0.00 24 1013.9
20260505081330 56 180 0.0 0.0 0.00 0.00 0.00 23 1014.0
20260505075329 55 157 0.0 1.7 0.00 0.00 0.00 27 1014.0
20260505073328 54 157 0.0 0.0 0.00 0.00 0.00 32 1014.1
20260505071327 54 157 0.0 0.0 0.00 0.00 0.00 36 1014.3
20260505065326 54 135 0.0 1.7 0.00 0.00 0.00 36 1014.4
20260505063325 55 112 0.0 1.7 0.00 0.00 0.00 31 1014.4